Regional Weather Roundup
Issued by NWS Jackson, KY

Home | Current Version | Previous Version | Text Only | Print | Product List | Glossary Off
Versions: 1 2 3 4 5 6 7 8 9 10 11 12 13 14 15 16 17 18 19 20 21 22 23 24 25 26 27 28 29 30 31 32 33 34 35 36 37 38 39 40 41 42 43 44 45 46 47 48 49 50

000
ASUS43 KJKL 310111
RWRJKL

EAST KENTUCKY HOURLY WEATHER ROUNDUP
NATIONAL WEATHER SERVICE JACKSON KY
800 PM EST FRI JAN 30 2015

NOTE: "FAIR" INDICATES FEW OR NO CLOUDS BELOW 12,000 FEET WITH
NO SIGNIFICANT WEATHER AND/OR OBSTRUCTIONS TO VISIBILITY.

* THESE REPORTS ARE NOT UNDER NWS QUALITY CONTROL AND MAY NOT
  REPORT WEATHER SUCH AS PRECIPITATION AND FOG.

KYZ079-080-083-085-087-088-110-112-115-119-120-310200
...EASTERN KENTUCKY...

CITY           SKY/WX    TMP DP  RH WIND       PRES   REMARKS
JACKSON        CLEAR     26  13  57 CALM      30.41R
LONDON         CLEAR     30  12  47 NW3       30.41S
SOMERSET*      CLEAR     32  16  51 CALM      30.45S
MONTICELLO*    CLEAR     30  19  63 N8        30.45S WCI  22
MIDDLESBORO*   CLEAR     29  19  67 N5        30.41R WCI  24
HARLAN APT*    CLEAR     30  14  51 CALM      30.39R
HAZARD APT*    CLEAR     30  14  51 CALM      30.41R
PIKEVILLE APT* CLEAR     27  10  50 NW6       30.40R WCI  20
BIG SANDY*       N/A     27  12  53 N3        30.41S
MOREHEAD APT*  PTCLDY    27  10  50 CALM      30.45F
$$

KYZ035-036-041-042-044-050-067-078-099-310200
...CENTRAL KENTUCKY...

CITY           SKY/WX    TMP DP  RH WIND       PRES   REMARKS
MT STERLING*   CLEAR     27  16  63 NE3       30.45S
FLEMING/MASON* CLEAR     24  12  59 N3        30.46R
DANVILLE*      CLEAR     27  18  69 CALM      30.45S
RICHMOND*      CLEAR     28  14  54 CALM      30.43S
LEXINGTON      CLEAR     27  14  58 N5        30.44R WCI  22
FRANKFORT      CLEAR     27  14  58 N3        30.45R
$$

KYZ091>093-OHZ055-061-077-WVZ005-015-034-035-042-310200
...SOUTHERN OHIO/WEST VIRGINIA...

CITY           SKY/WX    TMP DP  RH WIND       PRES   REMARKS
COVINGTON      PTCLDY    24  14  65 CALM      30.45R
COLUMBUS       CLEAR     18   7  62 CALM      30.44F
DAYTON         CLEAR     21  11  65 CALM      30.44S
WILMINGTON     CLEAR     19  11  70 N5        30.43S WCI  12
HUNTINGTON     CLEAR     24  12  60 N6        30.44R WCI  17
CHARLESTON     PTCLDY    24  10  55 W6        30.43R WCI  17
PINEVILLE*     CLEAR     25  17  71 MISG      30.40R
BECKLEY        PTCLDY    17   7  64 NW9G20    30.29R WCI   6
BLUEFIELD      CLEAR     21   8  57 NW13      30.26R WCI   9
$$

VAZ002-007-008-TNZ017-027-036-066-071-310200
...SOUTHWEST VIRGINIA/EAST TENNESSEE...

CITY           SKY/WX    TMP DP  RH WIND       PRES   REMARKS
WISE*          CLEAR     27  10  50 NW7       30.32R WCI  19
JONESVILLE*    CLEAR     32  14  47 NW5       30.41R WCI  27
ABINGDON*      CLEAR     30  12  46 NW9G17    30.32R WCI  22
BRISTOL        CLEAR     30  13  49 NW6       30.36R WCI  24
KNOXVILLE      CLEAR     35  17  47 N7        30.39  WCI  29
OAK RIDGE      CLEAR     38  18  44 N6        30.41R WCI  33
CROSSVILLE     CLEAR     32  18  56 N5        30.37R WCI  27
NASHVILLE      CLEAR     38  20  48 N5        30.44R WCI  34
$$

...KEY TO REMARKS...
VSB - VISIBILITY IN MILES
WCI - WIND CHILL INDEX
HX  - HEAT INDEX

$$



USA.gov is the U.S. government's official web portal to all federal, state and local government web resources and services.